Regional Weather Roundup
Issued by NWS

Home | Current Version | Previous Version | Text Only | Print | Product List | Glossary On
Versions: 1 2 3 4 5 6 7 8 9 10 11 12 13 14 15 16 17 18 19 20 21 22 23 24 25 26 27 28 29 30 31 32 33 34 35 36 37 38 39 40 41 42 43 44 45 46 47 48 49 50
000
ASUS43 KLMK 270302
RWRKY
KENTUCKY REGIONAL WEATHER ROUNDUP
NATIONAL WEATHER SERVICE LOUISVILLE KY
1000 PM EST WED NOV 26 2014

NOTE "FAIR" INDICATES FEW OR NO CLOUDS BELOW 12,000 FEET
WITH NO SIGNIFICANT WEATHER AND/OR OBSTRUCTIONS TO VISIBILITY.

KYZ001>023-026-027-061>063-070>075-270400-
WESTERN AND SOUTH CENTRAL KENTUCKY

CITY           SKY/WX    TMP DP  RH WIND       PRES   REMARKS
PADUCAH        CLOUDY    37  34  89 W7        30.07R WCI  32
HENDERSON      CLOUDY    34  30  86 NE3       30.05R
OWENSBORO      LGT SNOW  34  33  96 N6        30.05R FOG     WCI  29
HOPKINSVILLE   CLOUDY    39  39 100 W14G22    30.04R WCI  31
BOWLING GREEN  LGT RAIN  38  33  82 S5        30.03S WCI  34
GLASGOW        NOT AVBL
$$

KYZ024-025-028>034-038-045-046-053-270400-
NORTH CENTRAL KENTUCKY

CITY           SKY/WX    TMP DP  RH WIND       PRES   REMARKS
LOUISVILLE/SDF CLOUDY    39  29  67 N9        30.04F WCI  33
LOUISVILLE/LOU CLOUDY    38  28  67 CALM      30.06S
FORT KNOX      CLOUDY    37  29  72 W2        30.02F
$$

KYZ035>037-039>044-047>052-055>060-089>105-270400-
NORTHEAST KENTUCKY

CITY           SKY/WX    TMP DP  RH WIND       PRES   REMARKS
LEXINGTON      CLOUDY    34  29  82 N5        30.03R WCI  30
COVINGTON      CLOUDY    32  24  72 N8        30.05R WCI  25
FRANKFORT      CLOUDY    36  28  73 N3        30.03R
$$

KYZ054-064>069-076>088-106>120-270400-
SOUTHEAST KENTUCKY

CITY           SKY/WX    TMP DP  RH WIND       PRES   REMARKS
JACKSON        CLOUDY    39  28  64 CALM      30.00R
LONDON         CLOUDY    40  29  64 CALM      30.01R
SOMERSET       NOT AVBL
MIDDLESBORO    NOT AVBL
MONTICELLO     CLOUDY    39  34  82 SW9       30.07R HAZE    WCI  33
$$




USA.gov is the U.S. government's official web portal to all federal, state and local government web resources and services.